Hourly Data Report for October 06, 2014

All times are specified in Local Standard Time (LST). Add 1 hour to adjust for Daylight Saving Time where and when it is observed.

ARVIAT A
NUNAVUT

61°05'38.000" N
94°04'18.000" W
10.40 m
2300427
71174
YEK

Download Data

Hourly Data (October 2014)
Hourly Data Report for October 6, 2014
Temp Definition
°C
Dew Point Temp Definition
°C
Rel Hum Definition
%
Wind Dir Definition
10's deg

Wind Spd Definition
km/h
Visibility Definition
km
Stn Press Definition
kPa
Hmdx Definition


Wind Chill Definition


Weather Definition


TIME
00:00 Legend Double Dagger 2.6 2.6 100 4 30 1.6 99.12     Rain,Fog
01:00 Legend Double Dagger 2.8 2.8 100 4 28 0.4 99.15     Rain,Fog
02:00 Legend Double Dagger 2.8 2.8 100 4 22 0.4 99.09     Rain,Fog
03:00 Legend Double Dagger 2.8 2.8 100 6 22 4.0 99.15     Fog
04:00 Legend Double Dagger 2.2 2.2 100 7 9 1.2 99.11     Fog
05:00 Legend Double Dagger 2.1 2.1 100 1 8 0.8 99.06     Fog
06:00 Legend Double Dagger 2.2 2.2 100 2 13 6.4 99.04     Rain,Fog
07:00 Legend Double Dagger 2.1 2.1 100 4 9 6.4 99.01     Rain,Fog
08:00 Legend Double Dagger 1.3 1.3 100 LegendMM 4 1.6 98.93     Rain,Fog
09:00 Legend Double Dagger 1.1 1.1 100 20 8 2.8 98.93     Rain,Fog
10:00 Legend Double Dagger 0.4 0.4 100 18 9 8.1 98.95     Snow
11:00 Legend Double Dagger 0.4 0.4 100 15 15 16.1 99.01     Snow
12:00 Legend Double Dagger 1.6 1.5 99 11 18 16.1 99.12     Rain
13:00 Legend Double Dagger 2.3 2.3 100 9 18 4.0 99.22     Rain,Fog
14:00 Legend Double Dagger 4.1 3.3 94 11 26 16.1 99.32     LegendNANA
15:00 Legend Double Dagger 3.9 2.3 89 12 34 16.1 99.45     LegendNANA
16:00 Legend Double Dagger 3.7 1.1 83 11 28 16.1 99.58     LegendNANA
17:00 Legend Double Dagger 3.5 1.5 87 10 26 16.1 99.70     LegendNANA
18:00 Legend Double Dagger 2.9 1.4 90 9 28 16.1 99.82     LegendNANA
19:00 Legend Double Dagger 2.6 0.8 88 10 30 16.1 99.95     LegendNANA
20:00 Legend Double Dagger 1.8 0.8 93 9 17 16.1 100.06     LegendNANA
21:00 Legend Double Dagger 2.3 1.6 95 7 18 16.1 100.12     LegendNANA
22:00 Legend Double Dagger 3.0 2.1 94 7 28 14.5 100.14     LegendNANA
23:00 Legend Double Dagger 3.1 2.5 96 8 28 8.1 100.20     Fog

Notes on Data Quality.

Legend

  • E = Estimated
  • M = Missing
  • NA = Not Available
  • ‡ = Partner data that is not subject to review by the National Climate Archives
Date modified: